• Em Portugal
  • Lista de países
  • Para 7 dias
  • Temperatura da água
  • Mapas de satélite
  • Mapa do tempo
  • Widgets de tempo
  • user-avatar
    Iniciar Sessão

    Previsão horária em Barreiro

    Hoje, 21 Setembro, Quinta-feira

    Tempo Temperatura Precipitação Vento Pressão Humidade
    00:00 +15°C° 0 mm 4 m/s 762 mmHg 84%
    01:00 +15°C° 0 mm 4 m/s 762 mmHg 87%
    02:00 +15°C° 0 mm 4 m/s 762 mmHg 89%
    03:00 +15°C° 0 mm 4 m/s 762 mmHg 91%
    04:00 +16°C° 0 mm 3 m/s 762 mmHg 92%
    05:00 +16°C° 0 mm 3 m/s 762 mmHg 94%
    06:00 +18°C° 0 mm 4 m/s 762 mmHg 86%
    07:00 +20°C° 0 mm 4 m/s 762 mmHg 78%
    08:00 +21°C° 0 mm 4 m/s 763 mmHg 70%
    09:00 +23°C° 0 mm 4 m/s 763 mmHg 62%
    10:00 +26°C° 0 mm 5 m/s 763 mmHg 54%
    11:00 +28°C° 0 mm 5 m/s 763 mmHg 45%
    12:00 +29°C° 0 mm 5 m/s 762 mmHg 44%
    13:00 +29°C° 0 mm 6 m/s 762 mmHg 42%
    14:00 +30°C° 0 mm 7 m/s 762 mmHg 41%
    15:00 +28°C° 0 mm 7 m/s 762 mmHg 45%
    16:00 +27°C° 0 mm 7 m/s 762 mmHg 50%
    17:00 +24°C° 0 mm 7 m/s 762 mmHg 55%
    18:00 +23°C° 0 mm 7 m/s 762 mmHg 62%
    19:00 +21°C° 0 mm 7 m/s 763 mmHg 68%
    20:00 +18°C° 0 mm 7 m/s 764 mmHg 74%
    21:00 +18°C° 0 mm 7 m/s 763 mmHg 75%
    22:00 +17°C° 0 mm 6 m/s 763 mmHg 76%
    23:00 +17°C° 0 mm 6 m/s 763 mmHg 77%

    Amanhã, 22 Setembro, Sexta-feira

    Tempo Temperatura Precipitação Vento Pressão Humidade
    00:00 +16°C° 0 mm 6 m/s 763 mmHg 79%
    01:00 +16°C° 0 mm 6 m/s 763 mmHg 82%
    02:00 +16°C° 0 mm 6 m/s 763 mmHg 84%
    03:00 +15°C° 0 mm 6 m/s 763 mmHg 86%
    04:00 +15°C° 0 mm 6 m/s 763 mmHg 88%
    05:00 +15°C° 0 mm 5 m/s 763 mmHg 89%
    06:00 +17°C° 0 mm 5 m/s 763 mmHg 80%
    07:00 +19°C° 0 mm 5 m/s 763 mmHg 71%
    08:00 +21°C° 0 mm 5 m/s 763 mmHg 61%
    09:00 +23°C° 0 mm 5 m/s 763 mmHg 53%
    10:00 +27°C° 0 mm 5 m/s 763 mmHg 45%
    11:00 +29°C° 0 mm 5 m/s 762 mmHg 37%
    12:00 +30°C° 0 mm 5 m/s 762 mmHg 35%
    13:00 +30°C° 0 mm 5 m/s 761 mmHg 33%
    14:00 +32°C° 0 mm 5 m/s 761 mmHg 31%
    15:00 +29°C° 0 mm 5 m/s 761 mmHg 36%
    16:00 +27°C° 0 mm 6 m/s 761 mmHg 42%
    17:00 +26°C° 0 mm 6 m/s 761 mmHg 48%
    18:00 +23°C° 0 mm 5 m/s 761 mmHg 56%
    19:00 +21°C° 0 mm 5 m/s 762 mmHg 65%
    20:00 +19°C° 0 mm 5 m/s 762 mmHg 74%
    21:00 +18°C° 0 mm 4 m/s 762 mmHg 76%
    22:00 +18°C° 0 mm 4 m/s 762 mmHg 79%
    23:00 +17°C° 0 mm 3 m/s 762 mmHg 82%

    Depois de amanhã, 23 Setembro, Sábado

    Tempo Temperatura Precipitação Vento Pressão Humidade
    00:00 +17°C° 0 mm 3 m/s 762 mmHg 83%
    01:00 +16°C° 0 mm 3 m/s 761 mmHg 84%
    02:00 +16°C° 0 mm 3 m/s 761 mmHg 85%
    03:00 +16°C° 0 mm 2 m/s 761 mmHg 86%
    04:00 +16°C° 0 mm 2 m/s 761 mmHg 87%
    05:00 +15°C° 0 mm 2 m/s 761 mmHg 88%
    06:00 +17°C° 0 mm 2 m/s 762 mmHg 79%
    07:00 +20°C° 0 mm 3 m/s 762 mmHg 71%
    08:00 +22°C° 0 mm 3 m/s 762 mmHg 62%
    09:00 +25°C° 0 mm 3 m/s 763 mmHg 53%
    10:00 +27°C° 0 mm 3 m/s 763 mmHg 44%
    11:00 +29°C° 0 mm 3 m/s 763 mmHg 35%
    12:00 +30°C° 0 mm 4 m/s 762 mmHg 33%
    13:00 +30°C° 0 mm 4 m/s 762 mmHg 31%
    14:00 +32°C° 0 mm 5 m/s 762 mmHg 29%
    15:00 +29°C° 0 mm 5 m/s 762 mmHg 34%
    16:00 +27°C° 0 mm 5 m/s 762 mmHg 40%
    17:00 +25°C° 0 mm 5 m/s 762 mmHg 46%
    18:00 +22°C° 0 mm 5 m/s 763 mmHg 54%
    19:00 +20°C° 0 mm 4 m/s 763 mmHg 62%
    20:00 +18°C° 0 mm 4 m/s 764 mmHg 70%
    21:00 +17°C° 0 mm 4 m/s 764 mmHg 74%
    22:00 +17°C° 0 mm 3 m/s 764 mmHg 77%
    23:00 +16°C° 0 mm 3 m/s 764 mmHg 80%

    24 Setembro, Domingo

    Tempo Temperatura Precipitação Vento Pressão Humidade
    00:00 +16°C° 0 mm 3 m/s 763 mmHg 82%
    01:00 +14°C° 0 mm 3 m/s 763 mmHg 84%
    02:00 +15°C° 0 mm 2 m/s 763 mmHg 86%
    03:00 +14°C° 0 mm 2 m/s 763 mmHg 86%
    04:00 +14°C° 0 mm 2 m/s 763 mmHg 86%
    05:00 +14°C° 0 mm 2 m/s 763 mmHg 87%
    06:00 +16°C° 0 mm 2 m/s 763 mmHg 74%
    07:00 +19°C° 0 mm 2 m/s 764 mmHg 62%
    08:00 +21°C° 0 mm 2 m/s 764 mmHg 50%
    09:00 +25°C° 0 mm 2 m/s 764 mmHg 42%
    10:00 +27°C° 0 mm 2 m/s 764 mmHg 34%
    11:00 +30°C° 0 mm 2 m/s 764 mmHg 26%
    12:00 +30°C° 0 mm 3 m/s 764 mmHg 28%
    13:00 +30°C° 0 mm 4 m/s 764 mmHg 30%
    14:00 +32°C° 0 mm 5 m/s 763 mmHg 33%
    15:00 +29°C° 0 mm 5 m/s 764 mmHg 42%
    16:00 +28°C° 0 mm 5 m/s 764 mmHg 52%
    17:00 +26°C° 0 mm 5 m/s 764 mmHg 61%
    18:00 +25°C° 0 mm 4 m/s 764 mmHg 69%
    19:00 +22°C° 0 mm 4 m/s 765 mmHg 76%
    20:00 +21°C° 0 mm 4 m/s 765 mmHg 83%
    21:00 +21°C° 0 mm 3 m/s 765 mmHg 87%
    22:00 +20°C° 0 mm 3 m/s 765 mmHg 90%
    23:00 +20°C° 0 mm 3 m/s 765 mmHg 94%

    25 Setembro, Segunda-feira

    Tempo Temperatura Precipitação Vento Pressão Humidade
    00:00 +20°C° 0 mm 3 m/s 764 mmHg 94%
    01:00 +19°C° 0 mm 3 m/s 764 mmHg 95%
    02:00 +19°C° 0 mm 2 m/s 764 mmHg 95%
    03:00 +19°C° 0 mm 3 m/s 764 mmHg 95%
    04:00 +19°C° 0 mm 3 m/s 764 mmHg 94%
    05:00 +18°C° 0 mm 3 m/s 764 mmHg 94%
    06:00 +20°C° 0 mm 3 m/s 764 mmHg 81%
    07:00 +22°C° 0 mm 3 m/s 764 mmHg 68%
    08:00 +24°C° 0 mm 3 m/s 765 mmHg 55%
    09:00 +26°C° 0 mm 4 m/s 764 mmHg 47%
    10:00 +28°C° 0 mm 4 m/s 764 mmHg 39%
    11:00 +30°C° 0 mm 4 m/s 764 mmHg 32%
    12:00 +30°C° 0 mm 5 m/s 764 mmHg 31%
    13:00 +32°C° 0 mm 5 m/s 763 mmHg 30%
    14:00 +32°C° 0 mm 6 m/s 763 mmHg 29%
    15:00 +29°C° 0 mm 6 m/s 763 mmHg 33%
    16:00 +27°C° 0 mm 6 m/s 763 mmHg 37%
    17:00 +26°C° 0 mm 6 m/s 763 mmHg 42%
    18:00 +23°C° 0 mm 5 m/s 763 mmHg 51%
    19:00 +21°C° 0 mm 5 m/s 763 mmHg 61%
    20:00 +18°C° 0 mm 4 m/s 764 mmHg 71%
    21:00 +18°C° 0 mm 4 m/s 763 mmHg 75%
    22:00 +17°C° 0 mm 4 m/s 763 mmHg 79%
    23:00 +15°C° 0 mm 4 m/s 763 mmHg 83%

    26 Setembro, Terça-feira

    Tempo Temperatura Precipitação Vento Pressão Humidade
    00:00 +15°C° 0 mm 4 m/s 763 mmHg 84%
    01:00 +15°C° 0 mm 4 m/s 763 mmHg 86%
    02:00 +15°C° 0 mm 4 m/s 762 mmHg 87%
    03:00 +14°C° 0 mm 4 m/s 762 mmHg 87%
    04:00 +14°C° 0 mm 3 m/s 762 mmHg 87%
    05:00 +14°C° 0 mm 3 m/s 762 mmHg 88%
    06:00 +17°C° 0 mm 3 m/s 762 mmHg 77%
    07:00 +19°C° 0 mm 3 m/s 762 mmHg 66%
    08:00 +21°C° 0 mm 3 m/s 762 mmHg 55%
    09:00 +23°C° 0 mm 4 m/s 762 mmHg 47%
    10:00 +26°C° 0 mm 4 m/s 762 mmHg 38%
    11:00 +28°C° 0 mm 5 m/s 762 mmHg 29%
    12:00 +29°C° 0 mm 5 m/s 761 mmHg 29%
    13:00 +29°C° 0 mm 6 m/s 761 mmHg 28%
    14:00 +29°C° 0 mm 6 m/s 760 mmHg 27%
    15:00 +28°C° 0 mm 6 m/s 760 mmHg 32%
    16:00 +26°C° 0 mm 6 m/s 761 mmHg 37%
    17:00 +23°C° 0 mm 6 m/s 761 mmHg 41%
    18:00 +21°C° 0 mm 5 m/s 761 mmHg 51%
    19:00 +19°C° 0 mm 4 m/s 761 mmHg 61%
    20:00 +17°C° 0 mm 4 m/s 762 mmHg 71%
    21:00 +17°C° 0 mm 3 m/s 762 mmHg 74%
    22:00 +16°C° 0 mm 3 m/s 762 mmHg 77%
    23:00 +16°C° 0 mm 3 m/s 761 mmHg 80%
    Mostrar mais